This is the latest recevied weather packets stored in our database for station/object KE0PRS. If no packets are shown the sender has not sent any weather packets the latest 10 day(s).
| Time | Temp. | Humidity | Pressure | Rain* | Wind** | Luminosity | Snow |
|---|---|---|---|---|---|---|---|
| 1788159798 | 28.33° C | 47% | 1014.3 hPa | 0 mm | - | 0 W/m² | - |
| 1788159498 | 28.33° C | 48% | 1014.3 hPa | 0 mm | - | 0 W/m² | - |
| 1788159195 | 28.33° C | 48% | 1014.4 hPa | 0 mm | - | 0 W/m² | - |
| 1788158891 | 28.33° C | 49% | 1014.4 hPa | 0 mm | - | 0 W/m² | - |
| 1788158586 | 28.33° C | 49% | 1014.5 hPa | 0 mm | - | 0 W/m² | - |
| 1788158282 | 28.33° C | 48% | 1014.3 hPa | 0 mm | - | 0 W/m² | - |
| 1788157977 | 28.33° C | 49% | 1014.6 hPa | 0 mm | - | 0 W/m² | - |
| 1788157677 | 28.33° C | 50% | 1014.6 hPa | 0 mm | - | 0 W/m² | - |
| 1788157372 | 28.33° C | 49% | 1014.6 hPa | 0 mm | - | 0 W/m² | - |
| 1788157070 | 28.89° C | 48% | 1014.5 hPa | 0 mm | - | 0 W/m² | - |
| 1788156765 | 28.89° C | 48% | 1014.6 hPa | 0 mm | - | 0 W/m² | - |
| 1788156462 | 28.89° C | 48% | 1014.2 hPa | 0 mm | - | 0 W/m² | - |
| 1788156161 | 28.89° C | 47% | 1014.2 hPa | 0 mm | - | 0 W/m² | - |
| 1788155861 | 27.78° C | 49% | 1014.3 hPa | 0 mm | - | 0 W/m² | - |
| 1788155561 | 27.78° C | 53% | 1014.4 hPa | 0 mm | - | 0 W/m² | - |
| 1788155256 | 27.78° C | 51% | 1014.4 hPa | 0 mm | - | 0 W/m² | - |
| 1788154951 | 28.33° C | 50% | 1014.1 hPa | 0 mm | - | 0 W/m² | - |
| 1788154650 | 28.33° C | 50% | 1013.9 hPa | 0 mm | - | 0 W/m² | - |
| 1788154350 | 28.33° C | 50% | 1013.6 hPa | 0 mm | - | 0 W/m² | - |
| 1788154050 | 28.33° C | 50% | 1013.7 hPa | 0 mm | - | 0 W/m² | - |
| 1788153749 | 28.33° C | 49% | 1013.5 hPa | 0 mm | - | 0 W/m² | - |
| 1788153447 | 28.89° C | 49% | 1013.6 hPa | 0 mm | - | 0 W/m² | - |
| 1788153146 | 28.89° C | 48% | 1013.3 hPa | 0 mm | - | 0 W/m² | - |
| 1788152841 | 28.89° C | 47% | 1013.3 hPa | 0 mm | - | 0 W/m² | - |
| 1788152539 | 28.89° C | 47% | 1013.4 hPa | 0 mm | - | 0 W/m² | - |
* Rain latest hour (hover to see other rain measurements)
** Current wind speed in m/s (hover to see current wind gust speed)